Welcome to the New NWS' Forecast!
Most changes are behind the scenes, but click here for differences you might notice.

Regional Weather Roundup (RWR)

Issued by National Weather Service (NWS)

                            
000
ASUS46 KSEW 182010
RWRWA 

WASHINGTON REGIONAL WEATHER ROUNDUP
NATIONAL WEATHER SERVICE SEATTLE WA
100 PM PDT TUE SEP 18 2018

NOTE:"FAIR" INDICATES FEW OR NO CLOUDS BELOW 12,000 FEET WITH NO 
SIGNIFICANT WEATHER AND/OR OBSTRUCTIONS TO VISIBILITY.

WAZ507-509-555>559-182100-
SEATTLE, TACOMA, EVERETT, AND VICINITY
  
CITY           SKY/WX    TMP DP  RH WIND       PRES   REMARKS
EVERETT        MOSUNNY   58  48  69 NW7       30.13S                  
BOEING FIELD   MOSUNNY   63  47  55 NW7       30.13S                  
RENTON         SUNNY     62  49  62 N5        30.12F                  
SEATAC AIRPORT MOSUNNY   61  48  62 CALM      30.12F                  
JBLM-MCCHORD   NOT AVBL                                               
PUYALLUP       FAIR      64  50  59 VRB5      30.12S                  
BREMERTON      SUNNY     63  46  54 NE6       30.12F                  
JBLM-FT LEWIS  NOT AVBL                                               
TACOMA NARROWS MOSUNNY   60  47  61 VRB7      30.12F                  
$$
 
WAZ001-503-506-510-514-515-182100-
NORTH INTERIOR
  
CITY           SKY/WX    TMP DP  RH WIND       PRES   REMARKS
BELLINGHAM     MOSUNNY   62  49  62 W5        30.12F                  
FRIDAY HARBOR  SUNNY     64  48  56 VRB5      30.14S                  
EASTSOUND      SUNNY     57  52  82 N6        30.13S                  
PORT ANGELES   SUNNY     60  45  57 E8        30.14F                  
EDIZ HOOK      FAIR      58  50  74 SE5       30.14F                  
PORT TOWNSEND  FAIR      59  48  67 N7        30.13S                  
NAS WHIDBEY    MOSUNNY   60  49  66 W8        30.17F                  
ARLINGTON      SUNNY     62  50  64 NW7       30.12F                  
BURLINGTON     MOSUNNY   61  50  67 VRB7      30.13S                  
$$
 
WAZ020-022-039-040-504-511-512-182100-
SOUTHWEST INTERIOR
  
CITY           SKY/WX    TMP DP  RH WIND       PRES   REMARKS
SHELTON        SUNNY     64  44  48 CALM      30.09F                  
OLYMPIA        SUNNY     62  47  57 N9        30.12F                  
CHEHALIS       FAIR      64  48  55 N8        30.11F                  
KELSO          SUNNY     64  47  53 NW9       30.10F                  
VANCOUVER      SUNNY     65  49  56 NW9       30.08F                  
SCAPPOOSE, OR  SUNNY     66  47  50 VRB6      30.07F                  
PORTLAND, OR   MOSUNNY   64  48  56 VRB5      30.09F                  
$$
 
WAZ021-516-517-182100-
WASHINGTON COAST
  
CITY           SKY/WX    TMP DP  RH WIND       PRES   REMARKS
FORKS          SUNNY     61  47  59 SW6       30.13S                  
HOQUIAM        SUNNY     62  47  57 W3        30.13F                  
ASTORIA, OR    SUNNY     64  46  52 N7        30.11F                  
$$
 
WAZ019-023-024-040-567>569-182100-
CASCADE MOUNTAINS AND COLUMBIA GORGE
  
CITY           SKY/WX    TMP DP  RH WIND       PRES   REMARKS
STAMPEDE PASS  SUNNY     55  44  66 VRB5      30.09S                  
TROUTDALE, OR  SUNNY     63  49  60 NW6       30.08F                  
HOOD RIVER, OR CLEAR     68  46  45 CALM      30.04F                  
THE DALLES, OR SUNNY     71  45  39 NW8       30.01F                  
$$

WAZ026-027-041>044-520-521-182100-
EAST SLOPES
  
CITY           SKY/WX    TMP DP  RH WIND       PRES   REMARKS
OMAK           SUNNY     69  42  37 N12G17    30.03F                  
WENATCHEE      SUNNY     67  37  33 E5        30.03F                  
ELLENSBURG     SUNNY     68  36  30 VRB5      30.04F                  
YAKIMA         SUNNY     70  37  29 VRB3      30.03F                  
SUNNYSIDE ARPT CLEAR     66  44  45 CALM      30.04F                  
YAKIMA TC      NOT AVBL                                               
$$

WAZ028-034-035-182100-
COLUMBIA BASIN
  
CITY           SKY/WX    TMP DP  RH WIND       PRES   REMARKS
EPHRATA        SUNNY     69  32  25 E5        30.03F                  
MOSES LAKE     SUNNY     70  33  25 CALM      30.04F                  
PASCO          SUNNY     69  41  36 CALM      30.04F                  
RICHLAND ARPT  CLEAR     70  40  33 CALM      30.03F                  
HERMISTON, OR  SUNNY     69  39  33 CALM      30.03F                  
$$

WAZ036>038-182100-
NORTHEAST WASHINGTON
  
CITY           SKY/WX    TMP DP  RH WIND       PRES   REMARKS
SPOKANE GEIGER MOSUNNY   65  35  33 VRB3      30.04F                  
SPOKANE FELTS  SUNNY     65  36  34 W7        30.03F                  
FAIRCHILD AFB  NOT AVBL                                               
COEURDALENE,ID SUNNY     66  38  35 SW6       30.03F                  
DEER PARK      SUNNY     64  35  34 CALM      30.03F                  
$$

WAZ029>033-182100-
SOUTHEAST WASHINGTON
  
CITY           SKY/WX    TMP DP  RH WIND       PRES   REMARKS
PULLMAN        SUNNY     65  34  31 VRB7      30.05F                  
LEWISTON, ID   MOSUNNY   70  35  27 NW6       30.02F                  
WALLA WALLA    SUNNY     68  36  30 VRB5      30.03F                  
PENDLETON, OR  SUNNY     67  36  31 VRB7      30.03F                  
$$